DW4559 Weather Reports


Display with metric or nautical units.
time (UTC)temp
F
wind
direction
speed
MPH
gust
MPH
rain 1hr
in
rain 24hr
in
rain mn
in
humidity
%
barometer
mb
20260507135404 55 330 2.0 6.0 0.00 0.00 0.00 78 1005.0
20260507134904 54 334 2.0 5.0 0.00 0.00 0.00 79 1005.0
20260507134404 54 325 2.0 3.0 0.00 0.00 0.00 79 1005.0
20260507133904 53 146 1.0 3.0 0.00 0.00 0.00 82 1005.1
20260507133404 53 331 1.0 3.0 0.00 0.00 0.00 83 1005.1
20260507132904 52 341 0.0 3.0 0.00 0.00 0.00 85 1005.3
20260507131404 52 329 1.0 2.0 0.00 0.00 0.00 87 1005.2
20260507130904 51 340 1.0 2.0 0.00 0.00 0.00 88 1005.3
20260507130404 51 327 1.0 3.0 0.00 0.00 0.00 87 1005.4
20260507125904 51 14 0.0 3.0 0.00 0.00 0.00 89 1005.4
20260507125404 51 306 0.0 2.0 0.00 0.00 0.00 89 1005.3
20260507124904 51 327 0.0 1.0 0.00 0.00 0.00 90 1005.2
20260507123904 51 308 1.0 2.0 0.00 0.00 0.00 91 1005.0
20260507123404 51 0 2.0 6.0 0.00 0.00 0.00 91 1005.1
20260507122904 51 350 1.0 2.0 0.00 0.00 0.00 92 1005.1
20260507122404 51 322 1.0 2.0 0.00 0.00 0.00 92 1005.1
20260507121904 50 23 1.0 1.0 0.00 0.00 0.00 92 1005.1
20260507121404 50 332 1.0 2.0 0.00 0.00 0.00 93 1005.0
20260507120404 50 332 1.0 2.0 0.00 0.00 0.00 94 1004.7
20260507115903 50 11 0.0 1.0 0.00 0.00 0.00 94 1004.8
20260507115404 50 333 1.0 2.0 0.00 0.00 0.00 95 1004.7
20260507114904 50 20 1.0 2.0 0.00 0.00 0.00 96 1004.6
20260507114404 50 12 0.0 2.0 0.00 0.00 0.00 96 1004.6
20260507113404 50 332 0.0 1.0 0.00 0.00 0.00 97 1004.5
20260507112904 50 322 0.0 1.0 0.00 0.00 0.00 98 1004.5
20260507112404 50 318 1.0 2.0 0.00 0.00 0.00 98 1004.3
20260507111904 50 15 1.0 2.0 0.00 0.00 0.00 98 1004.3
20260507111404 50 38 0.0 1.0 0.00 0.00 0.00 99 1004.1
20260507110904 50 352 0.0 1.0 0.00 0.00 0.00 99 1004.4
20260507110404 50 1 1.0 1.0 0.00 0.00 0.00 99 1004.4
20260507105404 49 100 0.0 1.0 0.00 0.00 0.00 99 1004.3
20260507104904 49 319 1.0 2.0 0.00 0.00 0.00 99 1004.2
20260507104405 49 337 0.0 0.0 0.00 0.00 0.00 99 1004.1
20260507103904 49 337 0.0 0.0 0.00 0.00 0.00 99 1004.1
20260507103404 49 337 0.0 0.0 0.00 0.00 0.00 99 1004.1
20260507102904 49 337 0.0 1.0 0.00 0.00 0.00 99 1003.9
20260507102404 49 84 0.0 1.0 0.00 0.00 0.00 99 1003.8
20260507101904 49 314 0.0 1.0 0.00 0.00 0.00 99 1003.6
20260507100904 49 337 0.0 1.0 0.00 0.00 0.00 99 1003.5
20260507100404 49 344 1.0 1.0 0.00 0.00 0.00 99 1003.5
20260507095904 49 330 0.0 0.0 0.00 0.00 0.00 99 1003.6
20260507095404 49 330 0.0 0.0 0.00 0.00 0.00 99 1003.5
20260507094904 49 330 0.0 1.0 0.00 0.00 0.00 99 1003.7
20260507093904 49 318 0.0 1.0 0.00 0.00 0.00 99 1003.6
20260507093404 49 304 0.0 1.0 0.00 0.00 0.00 99 1003.7
20260507091904 49 324 1.0 2.0 0.00 0.00 0.00 98 1004.0
20260507091404 49 354 1.0 1.0 0.00 0.00 0.00 99 1003.6
20260507090904 49 325 1.0 2.0 0.00 0.00 0.00 99 1003.3
20260507090404 49 353 0.0 0.0 0.00 0.00 0.00 98 1003.1
20260507085904 49 339 0.0 1.0 0.00 0.00 0.00 98 1003.0
20260507085404 49 352 1.0 1.0 0.00 0.00 0.00 98 1003.1
20260507084904 49 349 1.0 3.0 0.00 0.00 0.00 98 1003.6
20260507083904 49 348 2.0 5.0 0.00 0.00 0.00 98 1003.0
20260507083404 49 351 1.0 2.0 0.00 0.00 0.00 98 1003.2
20260507082904 49 337 1.0 2.0 0.00 0.00 0.00 98 1003.4
20260507082404 49 333 1.0 2.0 0.00 0.00 0.00 98 1003.1
20260507081904 49 153 1.0 2.0 0.00 0.00 0.00 98 1003.2
20260507081404 49 325 1.0 2.0 0.00 0.00 0.00 97 1003.3
20260507080904 49 293 1.0 2.0 0.00 0.00 0.00 97 1003.4
20260507080404 49 329 2.0 2.0 0.00 0.00 0.00 97 1003.6
20260507075904 49 351 2.0 3.0 0.00 0.00 0.00 97 1003.3
20260507075403 49 299 2.0 5.0 0.00 0.00 0.00 97 1003.2
20260507074904 49 342 1.0 3.0 0.00 0.00 0.00 97 1003.3
20260507074404 49 346 1.0 3.0 0.00 0.00 0.00 97 1003.1
20260507073404 50 17 2.0 5.0 0.00 0.00 0.00 97 1003.0
20260507072905 50 321 1.0 2.0 0.00 0.00 0.00 97 1002.9
20260507071904 50 351 0.0 2.0 0.00 0.00 0.00 97 1003.0
20260507071404 50 24 1.0 2.0 0.00 0.00 0.00 97 1003.3
20260507070904 50 314 1.0 2.0 0.00 0.00 0.00 97 1003.4
20260507070404 51 358 2.0 3.0 0.00 0.00 0.00 96 1002.5
20260507065904 51 351 1.0 2.0 0.00 0.00 0.00 96 1002.5
20260507065403 51 340 1.0 2.0 0.00 0.00 0.00 96 1003.1
20260507064904 51 348 2.0 3.0 0.00 0.00 0.00 96 1003.0
20260507064404 51 8 1.0 2.0 0.00 0.00 0.00 95 1002.2
20260507063904 52 12 1.0 3.0 0.00 0.00 0.00 94 1002.9
20260507063403 52 0 2.0 2.0 0.00 0.00 0.00 93 1003.0
20260507062904 53 49 2.0 2.0 0.00 0.00 0.00 92 1002.9
20260507062403 53 3 1.0 3.0 0.00 0.00 0.00 92 1002.9
20260507061903 53 342 2.0 3.0 0.00 0.00 0.00 90 1002.9
20260507061404 53 336 1.0 2.0 0.00 0.00 0.00 91 1002.6
20260507060904 53 81 1.0 2.0 0.00 0.00 0.00 92 1002.1
20260507055904 54 23 1.0 3.0 0.00 0.00 0.00 93 1002.1
20260507055404 55 329 1.0 3.0 0.00 0.00 0.00 94 1002.2
20260507054904 55 330 1.0 2.0 0.00 0.00 0.00 95 1002.3
20260507054403 55 335 0.0 1.0 0.00 0.00 0.00 95 1002.0
20260507053904 56 329 1.0 2.0 0.00 0.00 0.00 95 1002.2
20260507053404 56 327 0.0 3.0 0.00 0.00 0.00 95 1002.2
20260507052904 56 347 2.0 3.0 0.00 0.00 0.00 96 1002.4
20260507052404 56 330 2.0 3.0 0.00 0.00 0.00 95 1002.3
20260507051904 57 358 1.0 3.0 0.00 0.00 0.00 96 1002.1
20260507051404 57 316 1.0 2.0 0.00 0.00 0.00 96 1002.0
20260507050903 57 358 1.0 2.0 0.00 0.00 0.00 96 1002.3
20260507050404 57 304 1.0 2.0 0.00 0.00 0.00 96 1002.4
20260507045904 58 343 0.0 2.0 0.00 0.00 0.00 96 1002.4
20260507045404 58 310 1.0 3.0 0.00 0.00 0.00 96 1002.2
20260507044903 58 340 1.0 1.0 0.00 0.00 0.00 97 1002.3
20260507044404 58 307 1.0 2.0 0.00 0.00 0.00 98 1002.4
20260507043904 58 2 1.0 3.0 0.00 0.00 0.00 99 1002.6
20260507043404 58 338 0.0 2.0 0.00 0.00 0.00 99 1002.8
20260507042904 58 358 0.0 1.0 0.00 0.00 0.00 100 1002.7
20260507041904 57 13 0.0 1.0 0.00 0.00 0.00 100 1002.6
20260507041404 57 351 0.0 1.0 0.00 0.00 0.00 100 1002.5
20260507040904 57 6 0.0 2.0 0.00 0.00 0.00 99 1002.5
20260507040404 57 329 0.0 1.0 0.00 0.00 0.00 99 1002.5
20260507035904 57 335 0.0 1.0 0.00 0.00 0.00 99 1002.5
20260507034904 57 323 0.0 1.0 0.00 0.00 0.00 99 1002.5
20260507033903 57 309 0.0 2.0 0.00 0.00 0.00 98 1002.5
20260507033404 57 309 0.0 2.0 0.00 0.00 0.00 98 1002.5
20260507031904 57 277 0.0 0.0 0.00 0.00 0.00 98 1002.2
20260507031403 58 277 0.0 0.0 0.00 0.00 0.00 97 1002.5
20260507030904 58 277 0.0 1.0 0.00 0.00 0.00 97 1002.7
20260507030404 58 319 0.0 0.0 0.00 0.00 0.00 96 1002.6
20260507025904 58 319 1.0 3.0 0.00 0.00 0.00 95 1002.7
20260507025404 57 331 1.0 3.0 0.00 0.00 0.00 94 1002.8
20260507024904 57 328 1.0 2.0 0.00 0.00 0.00 94 1002.7
20260507024403 57 321 0.0 1.0 0.00 0.00 0.00 94 1002.5
20260507023904 57 337 1.0 2.0 0.00 0.00 0.00 94 1002.7
20260507023403 57 335 0.0 1.0 0.00 0.00 0.00 94 1002.6
20260507022904 57 344 0.0 1.0 0.00 0.00 0.00 94 1002.5
20260507022404 57 342 0.0 0.0 0.00 0.00 0.00 94 1002.4
20260507021404 56 346 0.0 1.0 0.00 0.00 0.00 94 1002.8
20260507020904 56 319 0.0 2.0 0.00 0.00 0.00 94 1002.8
20260507020404 56 336 0.0 1.0 0.00 0.00 0.00 94 1002.8
20260507015403 56 344 0.0 1.0 0.00 0.00 0.00 95 1002.7
20260507014905 56 21 0.0 1.0 0.00 0.00 0.00 95 1002.7
20260507014404 56 16 0.0 1.0 0.00 0.00 0.00 95 1002.7
20260507013903 56 339 0.0 1.0 0.00 0.00 0.00 95 1002.7
20260507013404 56 328 0.0 0.0 0.00 0.00 0.00 95 1002.7
20260507012903 56 327 0.0 1.0 0.00 0.00 0.00 95 1002.7
20260507012403 56 344 0.0 1.0 0.00 0.00 0.00 95 1002.7
20260507011904 56 353 0.0 1.0 0.00 0.00 0.00 95 1002.7
20260507011403 56 335 0.0 0.0 0.00 0.00 0.00 94 1002.7
20260507005903 57 331 0.0 2.0 0.00 0.00 0.00 94 1002.8
20260507005404 57 347 0.0 1.0 0.00 0.00 0.00 93 1002.8
20260507004405 57 302 0.0 1.0 0.00 0.00 0.00 93 1002.9
20260507003904 57 319 1.0 2.0 0.00 0.00 0.00 93 1002.9
20260507003405 57 329 0.0 1.0 0.00 0.00 0.00 93 1002.9
20260507002905 57 341 0.0 0.0 0.00 0.00 0.00 93 1002.8
20260507001905 57 155 1.0 2.0 0.00 0.00 0.00 93 1002.7
20260507001405 57 334 0.0 1.0 0.00 0.00 0.00 93 1002.9
20260507000905 58 326 1.0 1.0 0.00 0.00 0.00 93 1002.8
20260507000405 58 342 1.0 1.0 0.00 0.00 0.00 93 1002.7
20260506235404 58 344 0.0 2.0 0.00 0.00 0.00 92 1002.7
20260506234905 58 339 1.0 2.0 0.00 0.00 0.00 92 1002.8
20260506234405 58 317 0.0 1.0 0.00 0.00 0.00 92 1002.6
20260506233905 58 326 0.0 1.0 0.00 0.00 0.00 92 1002.5
20260506233404 58 351 0.0 2.0 0.00 0.00 0.00 92 1002.5
20260506232905 58 6 1.0 1.0 0.00 0.00 0.00 92 1002.4
20260506232405 58 27 0.0 2.0 0.00 0.00 0.00 92 1002.4
20260506231405 58 322 1.0 2.0 0.00 0.00 0.00 92 1002.4
20260506225905 58 294 1.0 2.0 0.00 0.00 0.00 92 1002.4
20260506225405 58 26 1.0 2.0 0.00 0.00 0.00 92 1002.4
20260506224905 58 332 0.0 2.0 0.00 0.00 0.00 92 1002.4
20260506224404 58 328 0.0 2.0 0.00 0.00 0.00 92 1002.4
20260506223904 58 335 0.0 3.0 0.00 0.00 0.00 92 1002.4
20260506223405 58 45 1.0 3.0 0.00 0.00 0.00 92 1002.4
20260506222905 58 331 1.0 3.0 0.00 0.00 0.00 92 1002.3
20260506222405 58 314 1.0 5.0 0.00 0.00 0.00 91 1002.3
20260506221405 58 7 1.0 3.0 0.00 0.00 0.00 91 1002.2
20260506220905 59 345 1.0 3.0 0.00 0.00 0.00 92 1002.1
20260506220404 59 7 1.0 5.0 0.00 0.00 0.00 92 1002.1
20260506215905 59 337 1.0 5.0 0.00 0.00 0.00 92 1002.0
20260506215405 59 334 1.0 2.0 0.00 0.00 0.00 91 1002.0
20260506214905 59 343 1.0 3.0 0.00 0.00 0.00 91 1001.9
20260506214405 59 347 1.0 6.0 0.00 0.00 0.00 91 1001.9
20260506213905 59 351 1.0 3.0 0.00 0.00 0.00 92 1001.8
20260506213405 59 348 1.0 3.0 0.00 0.00 0.00 92 1001.8
20260506212905 59 342 2.0 6.0 0.00 0.00 0.00 93 1001.7
20260506212405 59 49 1.0 3.0 0.00 0.00 0.00 93 1001.8
20260506211905 59 358 1.0 3.0 0.00 0.00 0.00 94 1001.7
20260506211405 59 327 1.0 5.0 0.00 0.00 0.00 95 1001.7
20260506210905 58 84 1.0 3.0 0.00 0.00 0.00 95 1001.8
20260506210404 58 336 1.0 3.0 0.00 0.00 0.00 95 1001.7
20260506205905 58 324 1.0 2.0 0.00 0.00 0.00 95 1001.7
20260506205405 57 353 1.0 3.0 0.00 0.00 0.00 95 1001.7
20260506204905 57 325 1.0 2.0 0.00 0.00 0.00 94 1001.8
20260506204405 57 345 1.0 3.0 0.00 0.00 0.00 94 1002.1
20260506203905 57 308 1.0 5.0 0.00 0.00 0.00 94 1002.2
20260506203405 57 330 1.0 3.0 0.00 0.00 0.00 94 1002.2
20260506202905 57 322 1.0 3.0 0.00 0.00 0.00 94 1002.3
20260506202405 57 331 1.0 5.0 0.00 0.00 0.00 93 1002.3
20260506201905 57 340 2.0 6.0 0.00 0.00 0.00 93 1002.4
20260506201405 57 308 0.0 3.0 0.00 0.00 0.00 94 1002.4
20260506200904 57 332 2.0 5.0 0.00 0.00 0.00 93 1002.4
20260506200404 58 334 1.0 3.0 0.00 0.00 0.00 93 1002.2
20260506195905 58 294 1.0 7.0 0.00 0.00 0.00 93 1002.4
20260506195405 58 335 2.0 6.0 0.00 0.00 0.00 93 1002.3
20260506194905 58 356 1.0 6.0 0.00 0.00 0.00 92 1002.4
20260506194405 58 341 1.0 6.0 0.00 0.00 0.00 92 1002.3
20260506193404 59 341 1.0 7.0 0.00 0.00 0.00 92 1002.3
20260506192905 59 111 2.0 9.0 0.00 0.00 0.00 91 1002.3
20260506192405 59 183 3.0 7.0 0.00 0.00 0.00 90 1002.5
20260506191905 60 9 2.0 5.0 0.00 0.00 0.00 91 1002.5
20260506191405 60 298 1.0 3.0 0.00 0.00 0.00 92 1002.4
20260506190904 59 330 2.0 7.0 0.00 0.00 0.00 92 1002.6
20260506185905 59 23 2.0 6.0 0.00 0.00 0.00 92 1002.6
20260506185405 59 21 1.0 5.0 0.00 0.00 0.00 92 1002.8
20260506184905 59 321 1.0 5.0 0.00 0.00 0.00 92 1003.2
20260506184405 59 341 1.0 5.0 0.00 0.00 0.00 93 1003.2
20260506183905 59 323 2.0 5.0 0.00 0.00 0.00 93 1003.1
20260506183405 59 90 1.0 5.0 0.00 0.00 0.00 93 1003.3
20260506182905 59 325 2.0 6.0 0.00 0.00 0.00 93 1003.3
20260506181904 58 340 1.0 5.0 0.00 0.00 0.00 94 1003.3
20260506181405 58 2 2.0 3.0 0.00 0.00 0.00 94 1003.4
20260506180905 58 334 1.0 5.0 0.00 0.00 0.00 94 1003.5
20260506180404 58 15 1.0 8.0 0.00 0.00 0.00 94 1003.5
20260506175905 58 355 1.0 6.0 0.00 0.00 0.00 94 1003.5
20260506175405 58 334 1.0 5.0 0.00 0.00 0.00 94 1003.6
20260506174905 59 286 1.0 5.0 0.00 0.00 0.00 93 1003.8
20260506173905 59 354 2.0 3.0 0.00 0.00 0.00 92 1003.9
20260506173405 59 24 1.0 5.0 0.00 0.00 0.00 92 1004.0
20260506172404 59 22 1.0 3.0 0.00 0.00 0.00 90 1004.3
20260506171905 59 322 1.0 3.0 0.00 0.00 0.00 90 1004.4
20260506170904 60 314 1.0 3.0 0.00 0.00 0.00 88 1004.5
20260506170404 60 19 1.0 5.0 0.00 0.00 0.00 87 1004.7
20260506165905 61 316 0.0 3.0 0.00 0.00 0.00 86 1004.6
20260506165404 61 250 2.0 5.0 0.00 0.00 0.00 85 1004.5
20260506164904 62 26 1.0 8.0 0.00 0.00 0.00 85 1004.6
20260506164405 62 342 2.0 3.0 0.00 0.00 0.00 84 1004.6
20260506163905 62 10 1.0 5.0 0.00 0.00 0.00 83 1004.7
20260506163405 62 337 2.0 5.0 0.00 0.00 0.00 82 1004.7
20260506162405 62 279 2.0 6.0 0.00 0.00 0.00 80 1004.8
20260506161904 62 357 2.0 7.0 0.00 0.00 0.00 80 1004.8
20260506161405 62 322 2.0 6.0 0.00 0.00 0.00 80 1004.8
20260506160904 62 352 2.0 7.0 0.00 0.00 0.00 80 1004.8
20260506160405 63 335 2.0 7.0 0.00 0.00 0.00 79 1004.8
20260506155905 63 0 1.0 7.0 0.00 0.00 0.00 79 1004.9
20260506155405 64 321 1.0 5.0 0.00 0.00 0.00 78 1004.9
20260506154904 63 12 2.0 7.0 0.00 0.00 0.00 78 1005.0
20260506154404 64 5 1.0 9.0 0.00 0.00 0.00 78 1005.1
20260506151905 63 7 2.0 6.0 0.00 0.00 0.00 78 1005.3
20260506151404 63 332 1.0 3.0 0.00 0.00 0.00 79 1005.2
20260506150904 62 322 1.0 6.0 0.00 0.00 0.00 80 1005.0
20260506150404 62 294 2.0 5.0 0.00 0.00 0.00 80 1005.0
20260506145905 62 37 3.0 8.0 0.00 0.00 0.00 80 1005.1
20260506145406 62 321 2.0 7.0 0.00 0.00 0.00 80 1004.9
20260506143905 64 302 2.0 7.0 0.00 0.00 0.00 78 1005.3
20260506143405 64 308 1.0 5.0 0.00 0.00 0.00 77 1005.3
20260506142405 64 127 2.0 7.0 0.00 0.00 0.00 77 1005.3
20260506141904 65 273 2.0 8.0 0.00 0.00 0.00 76 1005.3
20260506141404 65 315 2.0 8.0 0.00 0.00 0.00 75 1005.3
20260506140905 64 356 2.0 5.0 0.00 0.00 0.00 77 1005.3